TimeEST,TemperatureF,Dew PointF,Humidity,Sea Level PressureIn,VisibilityMPH,Wind Direction,Wind SpeedMPH,Gust SpeedMPH,PrecipitationIn,Events,Conditions,WindDirDegrees,DateUTC
12:22 AM,35.6,30.2,81,29.77,8.0,West,16.1,-,0.00,Rain,Light Rain,260,2014-01-15 05:22:00
12:51 AM,35.1,28.9,78,29.81,8.0,West,16.1,-,0.00,,Overcast,260,2014-01-15 05:51:00
1:51 AM,32.0,23.0,69,29.82,10.0,West,9.2,-,N/A,,Overcast,260,2014-01-15 06:51:00
2:51 AM,30.0,21.0,69,29.84,10.0,West,11.5,-,N/A,,Overcast,260,2014-01-15 07:51:00
3:51 AM,30.0,19.0,64,29.86,10.0,WSW,9.2,-,N/A,,Overcast,240,2014-01-15 08:51:00
4:51 AM,30.0,19.0,64,29.86,10.0,WSW,13.8,-,N/A,,Overcast,240,2014-01-15 09:51:00
5:51 AM,28.0,17.1,63,29.89,10.0,WSW,13.8,-,N/A,,Overcast,250,2014-01-15 10:51:00
6:51 AM,28.0,16.0,61,29.91,10.0,WSW,13.8,-,N/A,,Overcast,250,2014-01-15 11:51:00
7:51 AM,28.0,16.0,61,29.93,10.0,West,18.4,-,N/A,,Overcast,270,2014-01-15 12:51:00
8:51 AM,28.9,15.1,56,29.96,10.0,WSW,16.1,-,N/A,,Overcast,240,2014-01-15 13:51:00
9:51 AM,28.9,17.1,61,29.98,8.0,West,13.8,-,0.00,Snow,Light Snow,260,2014-01-15 14:51:00
10:51 AM,28.0,16.0,61,29.99,10.0,WSW,18.4,-,0.00,Snow,Light Snow,240,2014-01-15 15:51:00
11:51 AM,28.0,15.1,58,29.99,10.0,WSW,16.1,-,0.00,Snow,Light Snow,240,2014-01-15 16:51:00
12:51 PM,27.0,14.0,58,29.98,10.0,West,18.4,-,0.00,,Overcast,260,2014-01-15 17:51:00
1:51 PM,28.0,14.0,56,29.97,10.0,West,13.8,-,N/A,,Overcast,280,2014-01-15 18:51:00
2:51 PM,28.0,12.0,51,29.98,10.0,West,16.1,-,N/A,,Overcast,270,2014-01-15 19:51:00
3:51 PM,27.3,13.8,57,30.00,10.0,West,11.5,-,N/A,,Overcast,260,2014-01-15 20:51:00
4:51 PM,27.1,13.5,56,30.01,10.0,WSW,11.5,-,N/A,,Mostly Cloudy,240,2014-01-15 21:51:00
5:51 PM,26.1,14.9,63,30.02,10.0,WSW,8.1,-,N/A,,Mostly Cloudy,250,2014-01-15 22:51:00
6:51 PM,26.2,15.3,63,30.04,8.0,WSW,5.8,-,0.00,Snow,Light Snow,250,2014-01-15 23:51:00
7:51 PM,26.6,15.4,63,30.04,10.0,West,5.8,-,0.00,,Overcast,260,2014-01-16 00:51:00
8:51 PM,25.5,15.3,65,30.04,10.0,West,4.6,-,N/A,,Overcast,260,2014-01-16 01:51:00
9:51 PM,25.7,16.2,67,30.04,10.0,West,4.6,-,N/A,,Overcast,260,2014-01-16 02:51:00
10:51 PM,25.2,17.1,71,30.03,10.0,West,4.6,-,N/A,,Overcast,260,2014-01-16 03:51:00
11:51 PM,25.2,17.1,71,30.02,10.0,West,6.9,-,N/A,,Overcast,260,2014-01-16 04:51:00